[[{"header":{"parameterUnit":"m.s-1","parameterCategory":1,"la1":30.2991,"la2":30.254,"lo1":-89.0895,"lo2":-89.0444,"dy":0.0017,"dx":0.0017,"nx":28,"ny":28,"refTime":"2024-05-23T03:00:00:Z","depth":0,"parameterNumber":2,"parameterNumberName":"U-component_of_WINDS"},"data":[0,0,0,0,0,0,0,0,0,0,0,0,0,0,0,0,0,0,0,0,0,0,0,0,0,0,0,0,0,0,0,0,0,0,0,0,0,0,0,0,0,0,0,0,0,0,0,0,0,0,0,0,0,0,0,0,0,0,-1.0048,-1.0049,0,-1.0112,-1.0113,-1.0114,-1.0126,-1.0126,-1.0125,-1.0125,-1.0192,-1.0194,-1.0197,0,0,0,0,0,0,0,0,0,0,0,0,0,-0.9939,-0.9941,-1.0048,-1.0049,-1.005,-1.0112,-1.0113,-1.0114,-1.0126,-1.0126,-1.0125,-1.0124,-1.0191,-1.0194,-1.0197,0,0,0,0,0,0,0,0,0,0,0,0,0,-0.9993,-0.9941,-1.0048,-1.0063,-1.0065,-1.0112,-1.0113,-1.0114,-1.0126,-1.0126,-1.0125,-1.0124,-1.0191,-1.0194,-1.0197,-1.0234,0,0,-1.0208,-1.0209,0,0,0,0,0,0,0,0,-0.999,-0.9997,-1.006,-1.0062,-1.0065,-1.011,-1.0099,-1.0154,-1.0127,-1.0103,-1.0125,-1.0124,-1.0166,-1.0171,-1.0185,-1.0237,-1.024,-1.0208,-1.021,-1.0212,-1.0213,0,0,0,0,0,0,0,-0.9986,-0.9994,-1.0074,-1.0061,-1.0064,-1.0068,-1.0075,-1.011,-1.0138,-1.0105,-1.0106,-1.0114,-1.0167,-1.0182,-1.0187,-1.0241,-1.0208,-1.0211,-1.0213,-1.0214,-1.0327,-1.0328,0,0,0,0,0,0,-0.9979,-0.9991,-1.0072,-1.0076,-1.0024,-1.007,-1.0078,-1.0097,-1.0138,-1.0143,-1.0114,-1.0114,-1.0176,-1.0183,-1.0189,-1.0235,-1.0212,-1.0215,-1.0217,-1.0326,-1.0327,-1.0328,0,0,0,0,0,0,-0.9977,-0.9986,-1.0069,-1.0034,-1.0044,-1.0073,-1.0094,-1.0098,-1.0113,-1.0144,-1.015,-1.0124,-1.0176,-1.0184,-1.0223,-1.0238,-1.0216,-1.0219,-1.0325,-1.0327,-1.0328,-1.0327,0,0,0,0,0,0,-0.9974,-0.9985,-0.9999,-1.0034,-1.0046,-1.0101,-1.0095,-1.01,-1.0119,-1.0119,-1.0155,-1.016,-1.0176,-1.0218,-1.0226,-1.0242,-1.0222,-1.0324,-1.0326,-1.0328,-1.0326,-1.0328,-1.033,0,0,0,0,0,-0.997,-0.9996,-0.9999,-1.0009,-1.0064,-1.0102,-1.0109,-1.0126,-1.012,-1.0134,-1.0155,-1.0159,-1.0235,-1.0221,-1.0231,-1.0248,-1.0323,-1.0325,-1.0327,-1.0325,-1.0328,-1.033,0,0,0,0,0,0,-0.9963,-1.0001,-1.0005,-1.0044,-1.0069,-1.0104,-1.0122,-1.0128,-1.0156,-1.0155,-1.0176,-1.0184,-1.0221,-1.0239,-1.0223,-1.0286,-1.0279,-1.0283,-1.0273,-1.0276,-1.0278,-1.0273,-1.0225,0,0,0,0,0,-0.9966,-0.9993,-1.0025,-1.0056,-1.0069,-1.0093,-1.011,-1.0121,-1.0149,-1.016,-1.0183,-1.021,-1.024,-1.0259,-1.0288,-1.0328,-1.0337,-1.0345,-1.0347,-1.0349,-1.0352,-1.0376,-1.038,-1.0335,-1.0335,-1.0335,0,0,-0.9972,-0.9997,-1.0012,-1.0055,-1.0076,-1.0105,-1.0102,-1.0132,-1.0153,-1.0164,-1.0202,-1.022,-1.0252,-1.0291,-1.031,-1.0307,-1.0367,-1.0352,-1.0353,-1.0355,-1.0378,-1.0382,-1.0386,-1.0337,-1.0337,-1.0336,0,0,-0.9999,-1.0019,-1.0048,-1.0069,-1.0101,-1.0117,-1.0124,-1.0157,-1.017,-1.0207,-1.0217,-1.0243,-1.0294,-1.0316,-1.0334,-1.0369,-1.0375,-1.0379,-1.039,-1.0412,-1.0416,-1.0419,-1.0432,-1.0436,-1.0382,-1.0382,-1.0382,0,-1.0003,-1.0045,-1.0062,-1.0091,-1.011,-1.0121,-1.015,-1.017,-1.021,-1.0223,-1.0219,-1.0284,-1.0306,-1.0351,-1.036,-1.0374,-1.0383,-1.0374,-1.0414,-1.0417,-1.0421,-1.0433,-1.0438,-1.0382,-1.0382,-1.0382,-1.0382,0,-1.0049,-1.0078,-1.0097,-1.0135,-1.0156,-1.0185,-1.0207,-1.0227,-1.0236,-1.0253,-1.0292,-1.0319,-1.0354,-1.0366,-1.0375,-1.0413,-1.041,-1.041,-1.0402,-1.0425,-1.0437,-1.0442,-1.0382,-1.0382,-1.0382,-1.0382,0,0,-1.0072,-1.0119,-1.0126,-1.0143,-1.0179,-1.0203,-1.0233,-1.0266,-1.0283,-1.0311,-1.0337,-1.038,-1.038,-1.0401,-1.0413,-1.0433,-1.046,-1.043,-1.0431,-1.0435,-1.0503,-1.0503,-1.0508,-1.0464,-1.0465,-1.0465,-1.0501,0,-1.0103,-1.0156,-1.0172,-1.0217,-1.0245,-1.0256,-1.0282,-1.0308,-1.0325,-1.0351,-1.037,-1.0401,-1.0398,-1.0411,-1.0431,-1.0452,-1.0474,-1.045,-1.0489,-1.049,-1.048,-1.0515,-1.0515,-1.0547,-1.0506,-1.0506,-1.0507,0,-1.0145,-1.0173,-1.022,-1.0253,-1.0266,-1.0289,-1.0322,-1.0347,-1.0376,-1.0387,-1.041,-1.0421,-1.0454,-1.0445,-1.0491,-1.0474,-1.0492,-1.0505,-1.0506,-1.0511,-1.05,-1.052,-1.0557,-1.0562,-1.0515,-1.0514,-1.0514,0,-1.0158,-1.0207,-1.0242,-1.0257,-1.0296,-1.0312,-1.033,-1.0358,-1.0378,-1.0407,-1.042,-1.0452,-1.047,-1.0496,-1.0515,-1.0507,-1.056,-1.0552,-1.0571,-1.057,-1.0581,-1.058,-1.0621,-1.0592,-1.0592,-1.0592,-1.0592,0,-1.0191,-1.0219,-1.0248,-1.027,-1.0302,-1.0321,-1.0354,-1.0372,-1.0397,-1.0423,-1.0435,-1.046,-1.0484,-1.0512,-1.0527,-1.0563,-1.0571,-1.0582,-1.0586,-1.0581,-1.0579,-1.0592,-1.0591,-1.0593,-1.0593,-1.0593,-1.0592,0,-1.021,-1.023,-1.0269,-1.0303,-1.0313,-1.0335,-1.0365,-1.0387,-1.0404,-1.0437,-1.0446,-1.0473,-1.0507,-1.0529,-1.0572,-1.0582,-1.0622,-1.0625,-1.0611,-1.0613,-1.063,-1.0628,-1.0681,-1.069,-1.0654,-1.0655,-1.0655,0,-1.0229,-1.0252,-1.0288,-1.0306,-1.0323,-1.0352,-1.0372,-1.0392,-1.0412,-1.0448,-1.0465,-1.0499,-1.0527,-1.058,-1.0605,-1.0638,-1.0642,-1.0659,-1.0647,-1.0642,-1.0643,-1.0641,-1.0644,-1.066,-1.0661,-1.0661,-1.0661,0,-1.0262,-1.0271,-1.0298,-1.033,-1.0353,-1.0379,-1.0405,-1.0419,-1.0444,-1.0467,-1.05,-1.0522,-1.0566,-1.06,-1.0635,-1.0654,-1.0662,-1.0664,-1.067,-1.0666,-1.0657,-1.0662,-1.0616,-1.0663,-1.0663,-1.0663,-1.0663,-1.0663,-1.0282,-1.0303,-1.0331,-1.0362,-1.0384,-1.0408,-1.043,-1.045,-1.0478,-1.0515,-1.0525,-1.0561,-1.0591,-1.0639,-1.0659,-1.0687,-1.0686,-1.0694,-1.0697,-1.0698,-1.0699,-1.0652,-1.0694,-1.0694,-1.0694,-1.0694,-1.0694,0,-1.0316,-1.0335,-1.0363,-1.0398,-1.0423,-1.0427,-1.0457,-1.0477,-1.0508,-1.0535,-1.0562,-1.0601,-1.0635,-1.0662,-1.0696,-1.0714,-1.0719,-1.0722,-1.0721,-1.0726,-1.0698,-1.0689,-1.0718,-1.0718,-1.0718,-1.0718,-1.0718,-1.0718,-1.0336,-1.0371,-1.0383,-1.0429,-1.0449,-1.0483,-1.0499,-1.0522,-1.0544,-1.0587,-1.0614,-1.0631,-1.0659,-1.0695,-1.0726,-1.0734,-1.0746,-1.0749,-1.0757,-1.073,-1.0728,-1.0725,-1.0717,-1.0751,-1.0751,-1.0783,-1.0783,-1.0783]},{"header":{"parameterUnit":"m.s-1","parameterCategory":1,"la1":30.2991,"la2":30.254,"lo1":-89.0895,"lo2":-89.0444,"dy":0.0017,"dx":0.0017,"nx":28,"ny":28,"refTime":"2024-05-23T03:00:00:Z","depth":0,"parameterNumber":3,"parameterNumberName":"V-component_of_WINDS"},"data":[0,0,0,0,0,0,0,0,0,0,0,0,0,0,0,0,0,0,0,0,0,0,0,0,0,0,0,0,0,0,0,0,0,0,0,0,0,0,0,0,0,0,0,0,0,0,0,0,0,0,0,0,0,0,0,0,0,0,4.926,4.926,0,4.9255,4.9255,4.9254,4.9237,4.9237,4.9236,4.9236,4.9227,4.9227,4.9228,0,0,0,0,0,0,0,0,0,0,0,0,0,4.9254,4.9255,4.926,4.926,4.926,4.9255,4.9255,4.9254,4.9237,4.9237,4.9236,4.9236,4.9227,4.9227,4.9228,0,0,0,0,0,0,0,0,0,0,0,0,0,4.9254,4.9255,4.926,4.9251,4.925,4.9255,4.9255,4.9254,4.9237,4.9237,4.9236,4.9236,4.9227,4.9227,4.9228,4.924,0,0,4.9228,4.9228,0,0,0,0,0,0,0,0,4.9254,4.9254,4.9252,4.9251,4.9251,4.9246,4.9249,4.925,4.9237,4.9242,4.9236,4.9235,4.9234,4.9233,4.9234,4.924,4.9239,4.9228,4.9228,4.9228,4.9228,0,0,0,0,0,0,0,4.9254,4.9254,4.9258,4.9252,4.9251,4.9246,4.9246,4.9249,4.9241,4.9241,4.924,4.924,4.9233,4.9233,4.9233,4.9239,4.9228,4.9228,4.9229,4.9229,4.9256,4.9257,0,0,0,0,0,0,4.9255,4.9254,4.9258,4.9258,4.9251,4.9247,4.9246,4.9248,4.9241,4.9239,4.924,4.9239,4.9233,4.9233,4.9233,4.9248,4.9228,4.9229,4.9229,4.9256,4.9257,4.9257,0,0,0,0,0,0,4.9255,4.9256,4.9258,4.9256,4.9256,4.9248,4.925,4.9248,4.9248,4.924,4.9238,4.9242,4.9233,4.9233,4.9239,4.9247,4.9229,4.9229,4.9255,4.9256,4.9257,4.9277,0,0,0,0,0,0,4.9255,4.9256,4.9261,4.9256,4.9256,4.9265,4.925,4.9248,4.9249,4.9247,4.9241,4.924,4.9232,4.9239,4.9239,4.9247,4.9229,4.9254,4.9256,4.9257,4.9275,4.9278,4.9281,0,0,0,0,0,4.9255,4.9266,4.9261,4.9262,4.9262,4.9265,4.9265,4.9257,4.925,4.9254,4.925,4.924,4.9246,4.924,4.924,4.9248,4.9254,4.9255,4.9257,4.9274,4.9278,4.9281,0,0,0,0,0,0,4.927,4.9265,4.926,4.9269,4.9268,4.9262,4.9268,4.9261,4.9261,4.9259,4.9249,4.9248,4.9256,4.9252,4.9245,4.926,4.9249,4.925,4.9262,4.9265,4.9268,4.9268,4.9229,0,0,0,0,0,4.9275,4.9279,4.9274,4.9283,4.9283,4.9276,4.9277,4.9271,4.9269,4.9268,4.9263,4.9261,4.9263,4.9264,4.9265,4.9275,4.9274,4.9281,4.9284,4.9286,4.9287,4.9293,4.9297,4.9262,4.9262,4.9262,0,0,4.9284,4.9282,4.9285,4.9286,4.9284,4.9289,4.9275,4.928,4.9283,4.9268,4.9275,4.9271,4.9268,4.9277,4.928,4.9274,4.9297,4.9288,4.929,4.929,4.9295,4.9299,4.9302,4.9263,4.9263,4.9263,0,0,4.9304,4.9302,4.931,4.9309,4.9308,4.9303,4.9305,4.9301,4.9299,4.9305,4.9295,4.9298,4.9301,4.9299,4.9299,4.932,4.9311,4.932,4.9334,4.934,4.9343,4.9345,4.9353,4.9356,4.9322,4.9322,4.9322,0,4.9315,4.9321,4.9314,4.932,4.9321,4.931,4.9318,4.9317,4.9316,4.9317,4.931,4.9314,4.9311,4.932,4.9326,4.9325,4.9327,4.932,4.9343,4.9346,4.9348,4.9355,4.9358,4.9323,4.9323,4.9323,4.9322,0,4.9336,4.9341,4.9347,4.9348,4.9349,4.9356,4.935,4.9352,4.9347,4.9343,4.935,4.9347,4.9347,4.9349,4.9343,4.9357,4.9353,4.9345,4.9333,4.9352,4.9359,4.9362,4.9324,4.9324,4.9324,4.9323,0,0,4.9363,4.9361,4.9363,4.9364,4.9362,4.9366,4.9372,4.9374,4.9377,4.9376,4.9382,4.9385,4.9378,4.9378,4.9372,4.9377,4.9395,4.9369,4.9369,4.9374,4.9411,4.9417,4.942,4.939,4.939,4.9391,4.9411,0,4.9381,4.9393,4.9388,4.94,4.9405,4.9395,4.9401,4.9401,4.9398,4.9401,4.9397,4.94,4.9391,4.9391,4.9396,4.9392,4.9402,4.939,4.9394,4.9394,4.9395,4.9424,4.943,4.9449,4.9414,4.9414,4.9415,0,4.9404,4.9406,4.9419,4.9419,4.942,4.9426,4.9428,4.9431,4.943,4.9428,4.9429,4.9422,4.9428,4.9417,4.9426,4.9418,4.9419,4.9417,4.9418,4.9418,4.9405,4.9424,4.9455,4.9458,4.9419,4.9418,4.9418,0,4.9423,4.9429,4.9438,4.9439,4.9438,4.9442,4.9442,4.9441,4.9443,4.9444,4.9446,4.9447,4.9448,4.945,4.9444,4.9436,4.9453,4.9441,4.9451,4.9451,4.9455,4.9454,4.9487,4.9456,4.9456,4.9456,4.9456,0,4.9443,4.9452,4.9447,4.9452,4.9462,4.9456,4.9465,4.9464,4.9463,4.9468,4.946,4.9465,4.9456,4.946,4.9455,4.9464,4.9464,4.9462,4.9461,4.9463,4.9463,4.9463,4.9461,4.9457,4.9456,4.9456,4.9456,0,4.9466,4.9463,4.9472,4.9471,4.9471,4.9478,4.9477,4.9482,4.9479,4.9486,4.9487,4.9482,4.9487,4.9481,4.9484,4.9481,4.9492,4.9489,4.9493,4.9492,4.9502,4.9501,4.9535,4.9539,4.9506,4.9506,4.9507,0,4.9479,4.9486,4.9486,4.949,4.949,4.9495,4.9498,4.9493,4.9495,4.9497,4.9501,4.9505,4.9508,4.9515,4.9512,4.9515,4.9511,4.9523,4.9511,4.9514,4.9511,4.9511,4.9512,4.9525,4.9525,4.9526,4.9526,0,4.9503,4.9502,4.9506,4.9511,4.9515,4.9517,4.952,4.9523,4.9517,4.9521,4.9526,4.9528,4.9533,4.9537,4.9539,4.9538,4.9531,4.953,4.9532,4.9534,4.9537,4.9536,4.9499,4.9529,4.9529,4.9528,4.9528,4.9528,4.9521,4.9527,4.9529,4.9535,4.9536,4.9539,4.9544,4.9543,4.9548,4.9552,4.9548,4.9554,4.9555,4.9557,4.9557,4.9562,4.9557,4.956,4.9561,4.9562,4.9564,4.9536,4.9562,4.9562,4.9562,4.9562,4.9562,0,4.9545,4.9547,4.9552,4.9556,4.9561,4.9556,4.9558,4.9562,4.9568,4.957,4.9574,4.958,4.9584,4.9582,4.9586,4.959,4.9587,4.9591,4.959,4.959,4.9568,4.9565,4.9593,4.9593,4.9593,4.9593,4.9593,4.9593,4.9558,4.9569,4.9568,4.9579,4.958,4.9587,4.9589,4.9592,4.9593,4.9601,4.9605,4.9604,4.9604,4.9608,4.9612,4.9611,4.9613,4.9618,4.9616,4.9595,4.9592,4.9589,4.9587,4.9619,4.9619,4.9639,4.9639,4.9639]}]]